Regional Weather Roundup
Issued by NWS

Home | Current Version | Previous Version | Graphics & Text | Print | Product List | Glossary On
Versions: 1 2 3 4 5 6 7 8 9 10 11 12 13 14 15 16 17 18 19 20 21 22 23 24 25 26 27 28 29 30 31 32 33 34 35 36 37 38 39 40 41 42 43 44 45 46 47 48 49 50
000
ASUS43 KMPX 181310
RWRMN
WEATHER ROUNDUP FOR MINNESOTA
NATIONAL WEATHER SERVICE TWIN CITIES/CHANHASSEN MN
800 AM CDT THU SEP 18 2014


NOTE: "FAIR" INDICATES FEW OR NO CLOUDS BELOW 12,000 FEET WITH NO
SIGNIFICANT WEATHER AND/OR OBSTRUCTIONS TO VISIBILITY. N/A MEANS
CURRENT SKY AND/OR WEATHER CONDITIONS ARE NOT AVAILABLE.

MNZ060>063-068>070-181400-
   Twin Cities Metro

CITY           SKY/WX    TMP DP  RH WIND       PRES   REMARKS
TWIN CITIES    SUNNY     49  46  90 NE6       30.09R
ST PAUL        SUNNY     49  46  90 E5        30.10R
CRYSTAL        CLOUDY    48  44  86 NE3       30.08R
BLAINE         CLOUDY    46  46 100 NE3       30.09R
LAKEVILLE      CLOUDY    48  48 100 E3        30.08S FOG
EDEN PRAIRIE     N/A    N/A N/A N/A MISG      30.07R
SOUTH ST PAUL  SUNNY     50  47  89 E5        30.09R
LAKE ELMO      CLOUDY    46  46 100 E3        30.10R FOG
$$
MNZ001>005-007-008-013>017-022>024-027-028-181400-
   Northwest Minnesota

CITY           SKY/WX    TMP DP  RH WIND       PRES   REMARKS
BEMIDJI        CLOUDY    43  42  96 S8        30.07S
HALLOCK        CLEAR     39  37  93 E5        30.00S
ROSEAU         HAZE      46  41  81 SE6       30.03F VSB<1/4
WARROAD        FOG       45  41  87 SE7       30.05S VSB 1/4
THIEF RVR FALL CLOUDY    48  48 100 SE10      30.02S VSB 1/4
CROOKSTON      FOG       48  46  93 SE8       30.02S VSB 1/4
FOSSTON        CLOUDY    45  43  93 SE7       30.04S FOG
DETROIT LAKES  FOG       46  45  93 SE9       30.05S VSB 3/4
MOORHEAD       CLEAR     50  50 100 SE6       30.01R FOG
PARK RAPIDS    CLOUDY    46  45  96 SE6       30.07S FOG
MAHNOMEN       CLOUDY    46  45  98 SE9       30.03S FOG
$$
MNZ006-009>011-018-025>026-181400-
   North Central Minnesota

CITY           SKY/WX    TMP DP  RH WIND       PRES   REMARKS
BAUDETTE       FOG       43  42  97 SE8       30.08R VSB 1/2
FLAG ISLAND    CLOUDY    46  45  93 S16       30.04S
INTL FALLS     CLOUDY    42  41  96 VRB7      30.10S FOG
WASKISH        CLOUDY    45  43  93 CALM      30.08S FOG
BIG FORK       CLOUDY    45  41  87 S5        30.10F
LONGVILLE      MOCLDY    41  39  93 SE7       30.09F
GRAND RAPIDS   CLOUDY    43  37  81 SE8       30.11S
CRANE LAKE     CLOUDY    41  39  93 CALM      30.15S
ORR            CLOUDY    41  37  87 SE7       30.10S
COOK           CLOUDY    41  37  87 E5        30.13S
WALKER         FAIR      41  37  87 SE6       30.09S
$$
MNZ012-019>021-037-181400-
   Northeast Minnesota

CITY           SKY/WX    TMP DP  RH WIND       PRES   REMARKS
DULUTH         MOSUNNY   43  36  76 E13       30.13S
ELY            CLOUDY    39  36  87 SE5       30.15S
HIBBING        PTSUNNY   42  37  82 SE5       30.13S
EVELETH        PTSUNNY  N/A N/A N/A E3          N/A
DULUTH HARBOR  PTSUNNY   46  39  76 E14G21    30.16S
TWO HARBORS    CLOUDY    43  34  70 E9        30.14S
SILVER BAY     MOSUNNY   41  37  87 E7        30.15S
GRAND MARAIS     N/A     46  34  62 SE6       30.20R
G MARAIS ARPRT PTSUNNY   36  28  75 E6        30.17S
$$
MNZ029>031-032-039>041-046>048-054>057-064-181400-
   West Central Minnesota

CITY           SKY/WX    TMP DP  RH WIND       PRES   REMARKS
FERGUS FALLS   CLOUDY    48  48 100 E9        30.03S FOG
WHEATON        FOG       48  46  93 SE12      30.04R VSB 1/2
MORRIS         FOG       50  48  93 E13       30.02S VSB 1/2
ALEXANDRIA     FOG       47  47 100 E9        30.07R VSB 1/4
ELBOW LAKE     CLOUDY    48  48 100 E13       30.03R FOG
WADENA         FOG       45  45 100 E9        30.06S VSB 3/4
GLENWOOD       MIX PCPN  46  46 100 E8        30.06R VSB<1/4
APPLETON       FOG       54  50  87 E9        30.02S VSB 1/2
BENSON         FOG       50  50 100 SE7       30.04S VSB 3/4
ORTONVILLE     FOG       52  48  87 SE10      30.01S VSB<1/4
MADISON        FOG       54  54 100 E8        30.02R VSB 1/4
WILLMAR        FOG       50  48  93 E10       30.07R VSB<1/4
$$
MNZ033>034-036-042>043-049>051-058-059-181400-
   Central Minnesota

CITY           SKY/WX    TMP DP  RH WIND       PRES   REMARKS
ST CLOUD       CLOUDY    48  45  89 E7        30.09S FOG
SAUK CENTRE    FOG       46  46  99 E10       30.07S VSB 1/2
PAYNESVILLE    CLOUDY    44  45 100 NE9       30.08R FOG
AITKIN         MOSUNNY   41  36  81 CALM      30.10S
PINE RIVER     PTCLDY    41  37  87 E8        30.12F
BRAINERD       CLOUDY    42  39  89 E6        30.10S
STAPLES        CLOUDY    45  41  87 E8        30.08S
LONG PRAIRIE   CLOUDY    45  45 100 E6        30.07F FOG
LITTLE FALLS   CLOUDY    43  41  93 SE3       30.10S
LITCHFIELD     FOG       48  48 100 E8        30.08S VSB 1/2
BUFFALO        CLOUDY    47  45  91 NE6       30.09S
MAPLE LAKE     CLOUDY    48  47  97 E8        30.09F FOG
$$
MNZ037-044-045-052-053-181400-
   East Central Minnesota

CITY           SKY/WX    TMP DP  RH WIND       PRES   REMARKS
PRINCETON      CLOUDY    46  45  93 E5        30.10S
MORA           FOG       41  37  87 NE3       30.13S VSB 1/2
CAMBRIDGE      CLOUDY    48  41  76 NE5       30.09R
RUSH CITY      CLOUDY    44  43  95 CALM      30.11S
MOOSE LAKE     CLOUDY    41  37  87 NE3       30.11S
HINCKLEY       FOG       41  41 100 NE6       30.12S VSB 1
CLOQUET        MOSUNNY   41  37  87 E7        30.12F
MCGREGOR       SUNNY     37  37 100 CALM      30.13R
$$
MNZ071>073-080-081-089-090-097-098-181400-
   Southwest Minnesota

CITY           SKY/WX    TMP DP  RH WIND       PRES   REMARKS
MONTEVIDEO     FOG       52  52 100 SE12      30.04S VSB 3/4
GRANITE FALLS  FOG       51  51 100 E8        30.06R VSB 1/4
CANBY          FOG       48  48  99 SE3       30.03S VSB 1/2
MARSHALL       CLOUDY    50  46  87 SE6       30.02R
REDWOOD FALLS  FOG       52  52 100 E7        30.04R VSB 1/4
OLIVIA         FOG       52  50  93 E7        30.05R VSB 1/2
PIPESTONE      MOCLDY    55  52  88 SE6       30.02S
WINDOM         CLEAR     50  48  93 CALM      30.04S FOG
WORTHINGTON    MOCLDY    52  48  87 CALM      30.06R
JACKSON        PTCLDY    57  54  88 S7        30.05R
TRACY          MOCLDY    51  50  97 CALM      30.04R
SLAYTON        FOG       50  50 100 CALM      30.05R VSB 1/2
$$
MNZ065>067-074>077-082>085-091>093-181400-
   South Central Minnesota

CITY           SKY/WX    TMP DP  RH WIND       PRES   REMARKS
MANKATO        SUNNY     52  46  82 E5        30.07R
NEW ULM        CLEAR     52  52 100 E7        30.06R FOG
ST JAMES       CLEAR     52  48  87 CALM      30.07R
FAIRMONT       CLEAR     48  45  87 S3        30.06R
GLENCOE        CLOUDY    50  48  91 NE3       30.07S FOG
FARIBAULT      SUNNY     52  46  82 CALM      30.08R HAZE
OWATONNA       SUNNY     52  48  87 CALM      30.08R
WASECA         SUNNY     50  46  87 E3        30.09R
ALBERT LEA     SUNNY     52  50  93 CALM      30.08R FOG
$$
MNZ078>079-086>088-094>096-181400-
   Southeast Minnesota

CITY           SKY/WX    TMP DP  RH WIND       PRES   REMARKS
ROCHESTER      SUNNY     50  48  93 SE5       30.10R
RED WING       CLOUDY    50  48  93 E6        30.09R FOG
STANTON        FOG       47  46  95 CALM      30.08R VSB<1/4
DODGE CENTER   SUNNY     50  48  93 SE5       30.09R FOG
WINONA         CLOUDY    52  50  93 SE8       30.12R FOG
AUSTIN         SUNNY     48  48 100 CALM      30.09R
PRESTON        SUNNY     48  48 100 SE3       30.11R
$$
ABBREVIATIONS USED IN REMARKS
   TC - TEMPERATURES IN CELSIUS
  WCI - WIND CHILL INDEX
   HX - HEAT INDEX
  VSB - VISIBILITY
$$


USA.gov is the U.S. government's official web portal to all federal, state and local government web resources and services.